TimeEST,TemperatureF,Dew PointF,Humidity,Sea Level PressureIn,VisibilityMPH,Wind Direction,Wind SpeedMPH,Gust SpeedMPH,PrecipitationIn,Events,Conditions,WindDirDegrees,DateUTC
12:53 AM,27.0,23.0,85,30.40,5.0,Calm,Calm,-,N/A,,Clear,0,2012-11-16 05:53:00
1:53 AM,24.1,21.9,91,30.40,5.0,Calm,Calm,-,N/A,,Clear,0,2012-11-16 06:53:00
2:53 AM,25.0,21.9,88,30.41,6.0,Calm,Calm,-,N/A,,Clear,0,2012-11-16 07:53:00
3:53 AM,24.1,21.0,88,30.42,5.0,Calm,Calm,-,N/A,,Clear,0,2012-11-16 08:53:00
4:53 AM,21.9,19.9,92,30.42,4.0,Calm,Calm,-,N/A,,Clear,0,2012-11-16 09:53:00
5:53 AM,24.1,19.9,84,30.43,6.0,Calm,Calm,-,N/A,,Clear,0,2012-11-16 10:53:00
6:53 AM,25.0,21.9,88,30.45,5.0,Calm,Calm,-,N/A,,Clear,0,2012-11-16 11:53:00
7:53 AM,23.0,19.9,88,30.47,4.0,Calm,Calm,-,N/A,,Clear,0,2012-11-16 12:53:00
8:53 AM,30.0,27.0,88,30.48,3.0,Calm,Calm,-,N/A,,Clear,0,2012-11-16 13:53:00
9:53 AM,36.0,30.0,79,30.48,4.0,Calm,Calm,-,N/A,,Haze,0,2012-11-16 14:53:00
10:53 AM,43.0,32.0,65,30.49,6.0,West,3.5,-,N/A,,Haze,280,2012-11-16 15:53:00
11:53 AM,46.0,35.1,66,30.48,6.0,Calm,Calm,-,N/A,,Haze,0,2012-11-16 16:53:00
12:53 PM,50.0,35.1,57,30.46,6.0,Variable,3.5,-,N/A,,Haze,0,2012-11-16 17:53:00
1:53 PM,53.1,34.0,48,30.46,7.0,WNW,8.1,-,N/A,,Clear,300,2012-11-16 18:53:00
2:53 PM,52.0,36.0,54,30.47,6.0,NW,6.9,-,N/A,,Haze,310,2012-11-16 19:53:00
3:53 PM,50.0,36.0,59,30.49,6.0,NNW,6.9,-,N/A,,Haze,340,2012-11-16 20:53:00
4:53 PM,46.0,35.1,66,30.51,5.0,NNW,4.6,-,N/A,,Haze,340,2012-11-16 21:53:00
5:53 PM,43.0,34.0,71,30.51,6.0,Calm,Calm,-,N/A,,Haze,0,2012-11-16 22:53:00
6:53 PM,36.0,32.0,86,30.52,5.0,Calm,Calm,-,N/A,,Clear,0,2012-11-16 23:53:00
7:53 PM,32.0,30.0,92,30.52,4.0,Calm,Calm,-,N/A,,Clear,0,2012-11-17 00:53:00
8:53 PM,32.0,28.9,88,30.52,4.0,SE,3.5,-,N/A,,Clear,130,2012-11-17 01:53:00
9:53 PM,32.0,28.9,88,30.52,4.0,Calm,Calm,-,N/A,,Clear,0,2012-11-17 02:53:00
10:15 PM,32.0,28.4,87,30.50,2.5,Calm,Calm,-,N/A,,Clear,0,2012-11-17 03:15:00
10:24 PM,30.2,26.6,86,30.50,3.0,Calm,Calm,-,N/A,,Clear,0,2012-11-17 03:24:00
10:53 PM,30.0,28.0,92,30.52,5.0,Calm,Calm,-,N/A,,Clear,0,2012-11-17 03:53:00
11:00 PM,32.0,30.2,93,30.50,2.0,Calm,Calm,-,N/A,,Clear,0,2012-11-17 04:00:00
11:10 PM,28.4,26.6,93,30.49,5.0,Calm,Calm,-,N/A,,Clear,0,2012-11-17 04:10:00
11:27 PM,30.2,30.2,100,30.50,2.5,Calm,Calm,-,N/A,,Clear,0,2012-11-17 04:27:00
11:53 PM,30.9,28.0,89,30.53,2.5,Calm,Calm,-,N/A,,Clear,0,2012-11-17 04:53:00